Weather History for Ocala, FL

Change the Weather History Date:

Wednesday, June 26, 2013

  Actual Average Record
Temperature  
Mean Temperature 81 °F -  
Max Temperature 91 °F 88 °F 95 °F (2010)
Min Temperature 71 °F 68 °F 66 °F (2001)
Cooling Degree Days 16    
Growing Degree Days 31 (Base 50)    
Moisture  
Dew Point 67 °F    
Average Humidity 74    
Maximum Humidity 83    
Minimum Humidity 46    
Precipitation  
Precipitation 0.00 in - - ()
Sea Level Pressure  
Sea Level Pressure 30.06 in    
Wind  
Wind Speed 2 mph (WSW)    
Max Wind Speed 8 mph    
Max Gust Speed -    
Visibility 10 miles    
Events      
Averages and records for this station are not official NWS values.
T = Trace of Precipitation, MM = Missing Value Source: NWS Daily Summary

Daily Weather History Graph

Daily Weather History Graph

Search for Another Location

Airport:

Trip Planner

Search our weather history database for the weather conditions in past years. The results will help you decide how hot, cold, wet, or windy it might be!

Date:

Astronomy

Jun. 26, 2013 Rise Set
Actual Time 6:31 AM EDT 8:31 PM EDT
Civil Twilight 6:04 AM EDT 8:59 PM EDT
Nautical Twilight 5:31 AM EDT 9:31 PM EDT
Astronomical Twilight 4:56 AM EDT 10:06 PM EDT
Moon 11:15 PM EDT (6/26) 10:04 AM EDT (6/26)
Length of Visible Light 14h 54m
Length of Day
14h 00m
Waning Gibbous, 85% of the Moon is Illuminated
Jun 26
Waning Gibbous
Jun 30
Last Quarter
Jul 8
New
Jul 15
First Quarter
Jul 22
Full

Hourly Weather History & Observations

Time (EDT) Temp. Heat Index Dew Point Humidity Pressure Visibility Wind Dir Wind Speed Gust Speed Precip Events Conditions
12:15 AM 78.8 °F - 66.2 °F 65% 30.09 in 10.0 mi Calm Calm - N/A   Clear
12:35 AM 77.0 °F - 66.2 °F 69% 30.08 in 10.0 mi Calm Calm - N/A   Clear
12:55 AM 75.2 °F - 66.2 °F 73% 30.08 in 10.0 mi Calm Calm - N/A   Clear
1:15 AM 75.2 °F - 66.2 °F 73% 30.08 in 10.0 mi Calm Calm - N/A   Clear
1:35 AM 75.2 °F - 66.2 °F 73% 30.07 in 10.0 mi ENE 3.5 mph - N/A   Clear
1:55 AM 75.2 °F - 66.2 °F 73% 30.06 in 10.0 mi Calm Calm - N/A   Clear
2:15 AM 75.2 °F - 66.2 °F 73% 30.06 in 10.0 mi Calm Calm - N/A   Clear
2:35 AM 75.2 °F - 66.2 °F 73% 30.05 in 10.0 mi Calm Calm - N/A   Clear
2:55 AM 73.4 °F - 66.2 °F 78% 30.05 in 10.0 mi Calm Calm - N/A   Clear
3:15 AM 73.4 °F - 66.2 °F 78% 30.05 in 10.0 mi Calm Calm - N/A   Clear
3:35 AM 73.4 °F - 66.2 °F 78% 30.05 in 10.0 mi Calm Calm - N/A   Clear
3:55 AM 71.6 °F - 66.2 °F 83% 30.05 in 10.0 mi Calm Calm - N/A   Clear
4:15 AM 71.6 °F - 66.2 °F 83% 30.05 in 10.0 mi Calm Calm - N/A   Clear
4:35 AM 71.6 °F - 66.2 °F 83% 30.04 in 10.0 mi Calm Calm - N/A   Clear
4:55 AM 71.6 °F - 66.2 °F 83% 30.04 in 10.0 mi Calm Calm - N/A   Clear
5:15 AM 71.6 °F - 66.2 °F 83% 30.04 in 10.0 mi Calm Calm - N/A   Clear
5:35 AM 71.6 °F - 66.2 °F 83% 30.04 in 10.0 mi Calm Calm - N/A   Clear
5:55 AM 71.6 °F - 66.2 °F 83% 30.05 in 10.0 mi Calm Calm - N/A   Clear
6:15 AM 71.6 °F - 66.2 °F 83% 30.07 in 10.0 mi Calm Calm - N/A   Clear
6:35 AM 71.6 °F - 66.2 °F 83% 30.08 in 10.0 mi North 3.5 mph - N/A   Clear
6:50 AM 71.6 °F - 66.2 °F 83% 30.07 in 10.0 mi Calm Calm - N/A   Partly Cloudy
7:50 AM 75.2 °F - 69.8 °F 83% 30.09 in 10.0 mi Calm Calm - N/A   Clear
8:50 AM 78.8 °F - 71.6 °F 78% 30.10 in 10.0 mi South 5.8 mph - N/A   Partly Cloudy
9:50 AM 82.4 °F 88.2 °F 73.4 °F 74% 30.10 in 10.0 mi SW 5.8 mph - N/A   Mostly Cloudy
10:50 AM 84.2 °F 89.6 °F 71.6 °F 66% 30.09 in 10.0 mi SW 3.5 mph - N/A   Mostly Cloudy
11:50 AM 87.8 °F 92.6 °F 69.8 °F 55% 30.09 in 10.0 mi West 5.8 mph - N/A   Mostly Cloudy
12:50 PM 89.6 °F 94.7 °F 69.8 °F 52% 30.08 in 10.0 mi Calm Calm - N/A   Scattered Clouds
1:50 PM 89.6 °F 94.7 °F 69.8 °F 52% 30.07 in 10.0 mi East 4.6 mph - N/A   Mostly Cloudy
2:50 PM 91.4 °F 96.8 °F 69.8 °F 49% 30.04 in 10.0 mi ENE 5.8 mph - N/A   Scattered Clouds
3:50 PM 91.4 °F 95.4 °F 68.0 °F 46% 30.02 in 10.0 mi North 4.6 mph - N/A   Scattered Clouds
4:50 PM 91.4 °F 96.8 °F 69.8 °F 49% 30.01 in 10.0 mi NNW 8.1 mph - N/A   Scattered Clouds
5:50 PM 84.2 °F 89.6 °F 71.6 °F 66% 30.02 in 10.0 mi North 6.9 mph - N/A   Mostly Cloudy
6:50 PM 73.4 °F - 64.4 °F 73% 30.08 in 10.0 mi East 5.8 mph - N/A   Scattered Clouds
7:55 PM 73.4 °F - 66.2 °F 78% 30.05 in 10.0 mi SSW 6.9 mph - N/A   Scattered Clouds
8:15 PM 73.4 °F - 66.2 °F 78% 30.05 in 10.0 mi WSW 5.8 mph - N/A   Partly Cloudy
8:35 PM 73.4 °F - 68.0 °F 83% 30.05 in 10.0 mi West 4.6 mph - N/A   Clear
8:55 PM 73.4 °F - 66.2 °F 78% 30.05 in 10.0 mi NNW 6.9 mph - N/A   Clear
9:15 PM 73.4 °F - 66.2 °F 78% 30.03 in 10.0 mi SW 4.6 mph - N/A   Clear
9:35 PM 73.4 °F - 66.2 °F 78% 30.01 in 10.0 mi Calm Calm - N/A   Clear
9:55 PM 73.4 °F - 66.2 °F 78% 30.01 in 10.0 mi Calm Calm - N/A   Clear
10:15 PM 73.4 °F - 66.2 °F 78% 30.04 in 10.0 mi North 8.1 mph - N/A   Clear
10:35 PM 73.4 °F - 66.2 °F 78% 30.05 in 10.0 mi North 4.6 mph - N/A   Clear
10:55 PM 73.4 °F - 66.2 °F 78% 30.06 in 10.0 mi SSE 3.5 mph - N/A   Clear
11:15 PM 71.6 °F - 66.2 °F 83% 30.06 in 10.0 mi South 4.6 mph - N/A   Clear
11:35 PM 71.6 °F - 66.2 °F 83% 30.06 in 10.0 mi SSE 3.5 mph - N/A   Clear
11:55 PM 71.6 °F - 66.2 °F 83% 30.05 in 10.0 mi SSW 3.5 mph - N/A   Clear